{"data":{"norad_id":60049,"intl_designator":"2024-112M","name":"STARLINK-11151 [DTC]","alt_names":[],"object_type":"PAYLOAD","status":"ACTIVE","operator":null,"country":"US","launch_date":"2024-06-08","launch_site_code":"AFWTR","launch_vehicle":null,"mission":null,"orbit_class":"UNKNOWN","rcs_meters":null,"size_class":null,"mass_kg":null,"dimensions":null,"purposes":["comms"],"wikipedia_slug":null,"has_3d_model":false,"image_url":null,"decayed_at":null,"tle_current":{"epoch":"2026-09-21T14:18:54.215712Z","epoch_age_seconds":82901,"freshness":"FRESH","line1":"1 60049U 24112M   26264.59646083 -.00005752  00000+0 -42607-4 0  9993","line2":"2 60049  53.1589  20.2798 0000793 113.9384 246.1717 15.69735156131751","mean_motion":15.69735156,"eccentricity":7.93e-5,"inclination_deg":53.1589,"raan_deg":20.2798,"arg_perigee_deg":113.9384,"mean_anomaly_deg":246.1717,"bstar":-4.2607e-5,"rev_number":13175,"period_min":91.735220078106,"perigee_km":359.12045765142,"apogee_km":360.18907142528,"semimajor_km":6737.7917645383,"source":"CELESTRAK","updated_at":"2026-09-22T09:00:49.144054Z"}}}